Retour au catalogue

SL-8 DEB

ActifLEO
NORAD 21178·DEBRIS·🇷🇺 Russia

Lancé Feb 12, 1991 depuis Plesetsk Cosmodrome

Loading…

Prochains Passages (prochaines 24 heures)

TLE

FraisSource: Space-Track

Époque: Sep 14, 2026, 09:45 UTC

1 21178U 91009AR  26257.40629831 -.00000103  00000-0 -87389-3 0  9997
2 21178  74.0933 245.8343 0141042 215.4018 299.2432 12.16340126580201

Suivez SL-8 DEB en temps réel avec AllMySat

Download on the App Store